Terminal Aerodrome Forecast
Issued by NWS Charleston, WV

Current Version | Previous Version | Graphics & Text | Print | Product List | Glossary On
Versions: 1 2 3 4 5 6 7 8 9 10 11 12 13 14 15 16 17 18 19 20 21 22 23 24 25
000
FTUS41 KRLX 261400 AAA
TAFCRW
TAF AMD
KCRW 261415Z 2614/2712 00000KT 1/2SM FG BKN001
     FM261500 18002KT 3SM BR SCT001
     FM261530 19005KT P6SM FEW040
     FM261800 19008G18KT P6SM SCT050
     FM262200 VRB04KT P6SM FEW090=

USA.gov is the U.S. government's official web portal to all federal, state and local government web resources and services.